Flag for U.S.A. Weather past 2 weeks in Metairie, Louisiana, U.S.A.

Now
84 °F

Clear.


Feels Like: 88 °F
Forecast: 80 / 93 °F
Wind: 7 mph from Southwest

Location: New Orleans International Airport

Current Time: Aug 22, 2014 at 10:49:37 PM

Latest Report: Aug 22, 2014 at 9:53 PM


Visibility: 10 mi

Pressure: 30.04 "Hg

Humidity: 63%

Dew point: 70 °F

Location of MetairieLocation

Historic Weather in Metairie — Graph

°F

Metairie temperature yesterday

Maximum temperature yesterday: 94 °F (at 2:53 PM)
Minimum temperature yesterday: 77 °F (at 4:53 AM)
Average temperature yesterday: 82 °F

Past Weeks' High & Low Weather Summary

 TemperatureHumidityPressure
High94 °F (Aug 8, 1:53 PM)94% (Aug 11, 2:53 AM)30.15 "Hg (Aug 11, 2:53 AM)
Low74 °F (Aug 12, 3:53 AM)33% (Aug 22, 5:53 PM)29.90 "Hg (Aug 12, 6:53 PM)
Average83 °F73%30.02 "Hg
* Reported Aug 7 8:53 PM — Aug 22 8:53 PM, Metairie, Weather by CustomWeather, © 2014

Note: Actual official high and low records may vary slightly from our data, if they occured in-between our weather recording intervals... More about our weather records

Advertising

Metairie weather history for previous 24 hours

 ConditionsComfort  
Time TempWeatherWind HumidityBarometerVisibility
8:53 PM
Aug 22
84 °FPassing clouds.3 mph61%30.03 "Hg10 mi
7:53 PM86 °FPassing clouds.5 mph53%30.02 "Hg10 mi
6:53 PM89 °FPassing clouds.6 mph46%30.02 "Hg10 mi
5:53 PM94 °FPassing clouds.No wind33%30.02 "Hg10 mi
4:53 PM94 °FPassing clouds.No wind36%30.03 "Hg10 mi
3:53 PM94 °FPassing clouds.5 mph43%30.05 "Hg10 mi
2:53 PM92 °FPassing clouds.7 mph52%30.08 "Hg10 mi
1:53 PM90 °FPassing clouds.9 mph61%30.10 "Hg10 mi
12:53 PM91 °FPassing clouds.6 mph56%30.11 "Hg10 mi
11:53 AM89 °FPassing clouds.9 mph63%30.12 "Hg10 mi
10:53 AM88 °FPassing clouds.9 mph63%30.13 "Hg10 mi
9:53 AM87 °FPassing clouds.No wind65%30.12 "Hg10 mi
8:53 AM84 °FScattered clouds.3 mph74%30.13 "Hg10 mi
7:53 AM80 °FScattered clouds.3 mph85%30.12 "Hg8 mi
6:53 AM76 °FPassing clouds.No wind91%30.11 "Hg10 mi
5:53 AM76 °FPassing clouds.3 mph91%30.10 "Hg10 mi
4:53 AM76 °FPassing clouds.3 mph88%30.09 "Hg10 mi
3:53 AM76 °FPassing clouds.No wind88%30.08 "Hg10 mi
2:53 AM75 °FPassing clouds.5 mph90%30.08 "Hg10 mi
1:53 AM77 °FPassing clouds.3 mph88%30.08 "Hg10 mi
12:53 AM78 °FPassing clouds.5 mph87%30.09 "Hg10 mi
11:53 PM
Aug 21
78 °FPassing clouds.3 mph87%30.11 "Hg10 mi
10:53 PM79 °FPassing clouds.3 mph84%30.13 "Hg10 mi
Weather by CustomWeather, © 2014

See weather overviewHow to use our weather pages